Hourly Data Report for October 09, 2017

All times are specified in Local Standard Time (LST). Add 1 hour to adjust for Daylight Saving Time where and when it is observed.

FREDERICTON
NEW BRUNSWICK

45°52'08.000" N
66°32'14.000" W
20.70 m
8101505
71700
YFC

Download Data

Hourly Data (October 2017)
Hourly Data Report for October 9, 2017
Temp Definition
°C
Dew Point Temp Definition
°C
Rel Hum Definition
%
Wind Dir Definition
10's deg

Wind Spd Definition
km/h
Visibility Definition
km
Stn Press Definition
kPa
Hmdx Definition


Wind Chill Definition


Weather Definition


TIME
00:00 Legend Double Dagger 16.0 15.7 98 19 13 2.4 101.02     Fog
01:00 Legend Double Dagger 15.6 15.3 98 20 9 16.1 101.10     LegendNANA
02:00 Legend Double Dagger 15.3 15.0 98 22 9 8.1 101.17     Fog
03:00 Legend Double Dagger 14.9 14.6 98 21 8 11.3 101.20     LegendNANA
04:00 Legend Double Dagger 13.5 13.2 98 16 5 1.2 101.25     Fog
05:00 Legend Double Dagger 13.7 13.6 99 21 8 4.8 101.31     Fog
06:00 Legend Double Dagger 13.5 13.4 99 21 8 11.3 101.36     LegendNANA
07:00 Legend Double Dagger 12.4 12.3 99 17 5 1.2 101.41     Fog
08:00 Legend Double Dagger 14.1 14.0 99 LegendMM 4 16.1 101.47     LegendNANA
09:00 Legend Double Dagger 15.6 15.2 98 22 5 16.1 101.54     LegendNANA
10:00 Legend Double Dagger 17.4 16.0 91 LegendMM 4 16.1 101.51     LegendNANA
11:00 Legend Double Dagger 18.6 16.3 86 LegendMM 4 16.1 101.48     LegendNANA
12:00 Legend Double Dagger 19.0 16.8 87   0 16.1 101.42     LegendNANA
13:00 Legend Double Dagger 19.9 17.0 83 24 5 16.1 101.41     LegendNANA
14:00 Legend Double Dagger 20.3 17.8 85 21 5 16.1 101.36 26   Rain
15:00 Legend Double Dagger 20.3 18.1 87 18 13 16.1 101.31 26   Rain
16:00 Legend Double Dagger 19.1 17.4 90 19 13 16.1 101.31     Rain
17:00 Legend Double Dagger 17.7 16.7 94 20 8 16.1 101.30     Rain
18:00 Legend Double Dagger 17.2 16.7 97 13 4 8.1 101.26     Rain,Fog
19:00 Legend Double Dagger 17.2 16.7 97 12 9 9.7 101.19     Moderate Rain,Fog
20:00 Legend Double Dagger 17.1 16.6 97 11 11 4.8 101.16     Moderate Rain,Fog
21:00 Legend Double Dagger 16.7 16.2 97 10 9 8.1 101.08     Moderate Rain,Fog
22:00 Legend Double Dagger 16.7 16.2 97 7 5 16.1 101.04     Rain
23:00 Legend Double Dagger 16.6 16.3 98 10 8 4.8 100.97     Moderate Rain,Fog

Notes on Data Quality.

Legend

  • E = Estimated
  • M = Missing
  • NA = Not Available
  • ‡ = Partner data that is not subject to review by the National Climate Archives
Date modified: